User: anonymous   Login
Location: Woodhurst
(52.3667°N, 0.0667°W)
Time: 10:45:07
(UTC+00:00)
Language:

Cosmos 1455 - Orbit

View from above orbital plane
View from above orbital plane
View from above satellite
View from above satellite

Ground track
Ground track

The orbit data is extracted from the following two-line orbital elements,

1 14032U 83037A   25197.03180806  .00116667  00000-0  47008-3 0  9990
2 14032  82.4911  13.9154 0003196 307.2140  52.8838 15.86053892311237
Epoch (UTC): 16 July 2025 00:45:48
Eccentricity: 0.0003196
inclination: 82.4911°
perigee height: 311 km
apogee height: 315 km
right ascension of ascending node: 13.9154°
argument of perigee: 307.2140°
revolutions per day: 15.86053892
mean anomaly at epoch: 52.8838°
orbit number at epoch: 31123

The dashed part of the orbit path shows where the satellite is in the earth's shadow,  

DLR